Regional Weather Roundup
Issued by NWS Portland, ME

Home | Current Version | Previous Version | Text Only | Print | Product List | Glossary On
Versions: 1 2 3 4 5 6 7 8 9 10 11 12 13 14 15 16 17 18 19 20 21 22 23 24 25 26 27 28 29 30 31 32 33 34 35 36 37 38 39 40 41 42 43 44 45 46 47 48 49 50
000
ASUS41 KGYX 282010
RWRGYX
WEATHER ROUNDUP FOR MAINE AND NEW HAMPSHIRE
NATIONAL WEATHER SERVICE GRAY ME
300 PM EST SAT FEB 28 2015

MEZ002-005-006-010-012-015-018-020-021-024-026-027-029-282100-
MAINE

CITY           SKY/WX    TMP DP  RH WIND       PRES   REMARKS
PORTLAND       SUNNY     26  12  55 S13       30.65S WCI  15
SANFORD        SUNNY     30   1  29 SW7       30.63F
BAR HARBOR     SUNNY     27   3  36 SW8       30.62S
WISCASSET      SUNNY     26   5  40 SW8       30.66S
ROCKLAND       SUNNY     25   5  42 SW13      30.63S WCI  13
FRYEBURG       SUNNY     30  -1  26 VRB6      30.59F
LEWISTONAUBURN SUNNY     27  -2  28 S6        30.61F
AUGUSTA        SUNNY     26  -2  29 SW8       30.61S
WATERVILLE     SUNNY     28  -2  26 SW9       30.57S
BANGOR         SUNNY     27  -3  27 W9        30.60S
GREENVILLE       N/A     25  -3  29 VRB6      30.45S
MILLINOCKET    SUNNY     28  -1  28 W10G17    30.54F WCI  19
HOULTON        SUNNY     25  -3  29 SW14      30.48F WCI  13
PRESQUE ISLE   SUNNY     27  -6  24 W17G25    30.46F WCI  14
FRENCHVILLE    SUNNY     21   0  39 W22G32    30.39S WCI   5
CARIBOU        SUNNY     25  -3  29 W14G21    30.43F WCI  13
$$

NHZ002-005-008-009-011-012-014-282100-
NEW HAMPSHIRE

CITY           SKY/WX    TMP DP  RH WIND       PRES   REMARKS
PORTSMOUTH     SUNNY     29   0  28 W9        30.63F
ROCHESTER      SUNNY     30   1  29 VRB7      30.63F
NASHUA         SUNNY     31  -2  24 VRB5      30.66F
MANCHESTER     SUNNY     31  -1  25 VRB3      30.63F
CONCORD        SUNNY     29  -2  26 VRB5      30.64F
LACONIA        SUNNY     28  -2  26 W8        30.60S
PLYMOUTH       FAIR      28   5  39 W8        30.62F
BERLIN         SUNNY     25  -2  31 NW6       30.55F
WHITEFIELD     SUNNY     23  -3  32 W6        30.58F
JAFFREY        SUNNY     26  -3  28 W5        30.60F
KEENE          SUNNY     28   0  29 NW5       30.65S
LEBANON        SUNNY     28   2  32 N3        30.63F
MT WASHINGTON  SUNNY      0 -13  55 NW35        N/A  WCI -28
$$

VTZ005-007-008-282100-
VERMONT

CITY           SKY/WX    TMP DP  RH WIND       PRES   REMARKS
ST JOHNSBURY     N/A     25   0  33 MISG      30.61S
MONTPELIER     SUNNY     21  -3  35 W8        30.63F
BURLINGTON     SUNNY     23   0  36 S12       30.67F WCI  12
$$

MAZ007-012-024-CTZ003-RIZ002-NYZ038-NYZ072-282100-
SOUTHERN NEW ENGLAND AND NY

CITY           SKY/WX    TMP DP  RH WIND       PRES   REMARKS
BOSTON         SUNNY     30   2  30 W8        30.68F
WORCESTER      SUNNY     25  -2  31 W10       30.61F WCI  15
NANTUCKET      SUNNY     26   7  44 W9        30.71S
PROVIDENCE     MOSUNNY   25   9  50 S9        30.70F
HARTFORD       MOSUNNY   28   4  35 SE9       30.69F
ALBANY         SUNNY     25   5  42 W8        30.74S
NEW YORK CITY  MOSUNNY   28   2  32 NW3       30.76F
$$

ANZ081-ANZ082-ANZ150-NHZ014-MEZ023>029-282100-
COASTAL MARINE OBSERVATIONS

STATION/POSITION TIME  TEMP    WIND        PRES    WAVE
                       AIR SEA DIR/SP/G            HT/PER
                 (UTC) (F)     (DEG/KT/KT) (MB)    (FT/S)
MOUNT DESERT ROC 2000   24                 1037.2R
MATINICUS ROCK   2000   23     240/ 10/ 13 1038.1F
WELLS            1900   26     180/ 12/ 15 1037.7F
ISLE OF SHOALS   2000   27     220/  9/ 12 1037.5F
JEFFREYS LEDGE   1921      41                N/A     3/ 8
CASHES LEDGE BUO 1950   26 40              1038.1F   3/10
$$

.............KEY..............
   WCI - WIND CHILL
   TC  - TEMPERATURE IN CELSIUS
   VSB - VISIBILITY IN MILES
   HX  - HEAT INDEX
   FAIR- INDICATES FEW OR NO CLOUDS BELOW 12,000 FT, WITH NO
         SIGNIFICANT WEATHER AND/OR OBSTRUCTIONS TO VISIBILITY.




USA.gov is the U.S. government's official web portal to all federal, state and local government web resources and services.